[[{"header":{"parameterUnit":"m.s-1","parameterCategory":1,"la1":30.2991,"la2":30.254,"lo1":-89.0895,"lo2":-89.0444,"dy":0.0017,"dx":0.0017,"nx":28,"ny":28,"refTime":"2024-08-14T09:00:00:Z","depth":0,"parameterNumber":2,"parameterNumberName":"U-component_of_WINDS"},"data":[0,0,0,0,0,0,0,0,0,0,0,0,0,0,0,0,0,0,0,0,0,0,0,0,0,0,0,0,0,0,0,0,0,0,0,0,0,0,0,0,0,0,0,0,0,0,0,0,0,0,0,0,0,0,0,0,0,0,0.4027,0.4029,0,0.4212,0.4214,0.4216,0.4281,0.428,0.4279,0.4279,0.4471,0.4477,0.4482,0,0,0,0,0,0,0,0,0,0,0,0,0,0.3734,0.3739,0.4027,0.4029,0.4032,0.4211,0.4214,0.4217,0.4281,0.428,0.4279,0.4278,0.4469,0.4476,0.4483,0,0,0,0,0,0,0,0,0,0,0,0,0,0.3884,0.374,0.4027,0.4085,0.4092,0.4211,0.4214,0.4217,0.4281,0.428,0.4279,0.4278,0.4467,0.4475,0.4484,0.4558,0,0,0.451,0.4514,0,0,0,0,0,0,0,0,0.3875,0.3895,0.4074,0.4081,0.409,0.4222,0.4181,0.4332,0.4281,0.4209,0.4279,0.4277,0.4389,0.4404,0.4441,0.4567,0.4576,0.4511,0.4516,0.452,0.4522,0,0,0,0,0,0,0,0.3865,0.3887,0.41,0.4077,0.4086,0.4104,0.4124,0.421,0.4303,0.4216,0.4221,0.4242,0.4393,0.4433,0.4446,0.4579,0.4511,0.4519,0.4524,0.4527,0.4777,0.4778,0,0,0,0,0,0,0.3844,0.3878,0.4094,0.4106,0.3978,0.411,0.4132,0.4181,0.4302,0.432,0.4242,0.4244,0.4418,0.4436,0.4453,0.455,0.452,0.4528,0.4533,0.4775,0.4777,0.4779,0,0,0,0,0,0,0.3837,0.3863,0.4087,0.3993,0.4023,0.4116,0.417,0.4185,0.4224,0.4322,0.434,0.4265,0.4418,0.4441,0.4532,0.4557,0.4532,0.454,0.4774,0.4776,0.4778,0.4743,0,0,0,0,0,0,0.3829,0.386,0.3888,0.3993,0.4028,0.4161,0.4171,0.4189,0.4239,0.4243,0.4349,0.4365,0.4419,0.4519,0.454,0.4569,0.4547,0.4772,0.4775,0.4777,0.4742,0.4743,0.4744,0,0,0,0,0,0.3818,0.3872,0.389,0.3915,0.4065,0.4163,0.4183,0.4243,0.4241,0.4271,0.4334,0.4362,0.4551,0.4527,0.4553,0.4584,0.4771,0.4774,0.4777,0.4741,0.4743,0.4744,0,0,0,0,0,0,0.3769,0.3887,0.3908,0.3997,0.4069,0.4173,0.4213,0.4242,0.4318,0.4318,0.439,0.4414,0.4499,0.4551,0.4523,0.4663,0.4662,0.4671,0.4627,0.4629,0.463,0.4617,0.4554,0,0,0,0,0,0.3768,0.3836,0.3936,0.4005,0.404,0.412,0.4165,0.4204,0.4283,0.4314,0.4384,0.446,0.4536,0.4585,0.4661,0.4749,0.4774,0.4783,0.4784,0.4785,0.4792,0.4844,0.4849,0.4789,0.4789,0.4789,0,0,0.3767,0.384,0.3879,0.3997,0.4057,0.4127,0.4145,0.4219,0.4272,0.4326,0.4416,0.4469,0.4559,0.4649,0.4692,0.4694,0.4814,0.4789,0.4789,0.4796,0.4848,0.4853,0.4858,0.4791,0.4791,0.4791,0,0,0.3803,0.3864,0.3929,0.3989,0.408,0.4133,0.4148,0.4249,0.4286,0.4377,0.4419,0.4484,0.4614,0.4677,0.4725,0.4784,0.4813,0.4806,0.4814,0.4863,0.4868,0.4873,0.4895,0.4902,0.4813,0.4813,0.4813,0,0.3791,0.3897,0.3958,0.403,0.4081,0.4131,0.4198,0.4254,0.4366,0.44,0.4401,0.4566,0.4629,0.4735,0.4749,0.4787,0.4808,0.4795,0.4862,0.4867,0.4873,0.4895,0.4903,0.4811,0.4811,0.4812,0.4812,0,0.3879,0.3952,0.3994,0.4099,0.4155,0.4224,0.4296,0.4345,0.438,0.4433,0.4526,0.4604,0.4697,0.4725,0.476,0.4836,0.4835,0.4848,0.4849,0.4876,0.4898,0.4907,0.4809,0.481,0.481,0.4811,0,0,0.389,0.4028,0.4042,0.4091,0.4195,0.4254,0.4325,0.4415,0.4456,0.4531,0.4594,0.4703,0.4715,0.477,0.4813,0.4856,0.4899,0.4864,0.4867,0.4869,0.499,0.498,0.4989,0.4918,0.492,0.4922,0.4983,0,0.394,0.4069,0.4126,0.4229,0.4298,0.4347,0.4409,0.448,0.4532,0.4599,0.4656,0.4733,0.4742,0.4776,0.4821,0.4884,0.4925,0.488,0.4979,0.4982,0.4957,0.5001,0.4991,0.5045,0.4992,0.4993,0.4994,0,0.4017,0.4091,0.4201,0.4297,0.4328,0.4383,0.447,0.4533,0.4615,0.465,0.4711,0.4751,0.4829,0.4823,0.4933,0.4902,0.4945,0.4982,0.4986,0.4999,0.4991,0.5016,0.5064,0.5072,0.5008,0.5007,0.5006,0,0.4015,0.4143,0.4225,0.4265,0.4379,0.4417,0.4466,0.4547,0.4598,0.4674,0.4708,0.4793,0.484,0.4905,0.4968,0.4957,0.5072,0.5071,0.5104,0.5102,0.5127,0.5125,0.5184,0.5152,0.5152,0.5152,0.5152,0,0.4066,0.4132,0.4226,0.4277,0.4353,0.4417,0.4491,0.4544,0.4615,0.4678,0.4725,0.4784,0.4862,0.4931,0.4981,0.5065,0.5085,0.5116,0.5129,0.5113,0.511,0.5144,0.5143,0.5154,0.5154,0.5153,0.5153,0,0.4079,0.4144,0.4237,0.4337,0.4364,0.4415,0.4501,0.4553,0.4606,0.4686,0.4708,0.4792,0.4876,0.4944,0.5053,0.5087,0.5175,0.5189,0.5147,0.5154,0.5184,0.5181,0.5269,0.5284,0.524,0.524,0.524,0,0.4108,0.416,0.4264,0.4309,0.4358,0.443,0.4481,0.4547,0.4599,0.4696,0.4737,0.4823,0.4896,0.5027,0.5099,0.5183,0.5201,0.5226,0.5214,0.5197,0.5203,0.52,0.5207,0.5227,0.5227,0.5227,0.5227,0,0.4154,0.4183,0.4255,0.4338,0.4398,0.4467,0.4537,0.4572,0.4651,0.4707,0.4792,0.4848,0.4959,0.5045,0.5137,0.519,0.5223,0.523,0.5243,0.5228,0.5202,0.5218,0.5152,0.5228,0.5228,0.5228,0.5228,0.5228,0.4177,0.4225,0.4307,0.4385,0.4445,0.4509,0.4563,0.4622,0.4694,0.4789,0.4824,0.4911,0.4993,0.5119,0.5172,0.5243,0.5246,0.5264,0.5269,0.5273,0.5272,0.5189,0.5259,0.5259,0.526,0.526,0.526,0,0.4227,0.4281,0.4352,0.4449,0.4511,0.4534,0.4613,0.4664,0.474,0.4812,0.4883,0.4981,0.5064,0.5142,0.523,0.5271,0.5289,0.5292,0.5291,0.5303,0.5262,0.5244,0.5277,0.5277,0.5277,0.5277,0.5277,0.5277,0.426,0.4343,0.4382,0.4496,0.4551,0.4636,0.4679,0.4739,0.4798,0.4905,0.4974,0.5023,0.5099,0.5192,0.527,0.5291,0.5322,0.5322,0.5347,0.5308,0.5306,0.5303,0.5286,0.5328,0.5328,0.5382,0.5383,0.5383]},{"header":{"parameterUnit":"m.s-1","parameterCategory":1,"la1":30.2991,"la2":30.254,"lo1":-89.0895,"lo2":-89.0444,"dy":0.0017,"dx":0.0017,"nx":28,"ny":28,"refTime":"2024-08-14T09:00:00:Z","depth":0,"parameterNumber":3,"parameterNumberName":"V-component_of_WINDS"},"data":[0,0,0,0,0,0,0,0,0,0,0,0,0,0,0,0,0,0,0,0,0,0,0,0,0,0,0,0,0,0,0,0,0,0,0,0,0,0,0,0,0,0,0,0,0,0,0,0,0,0,0,0,0,0,0,0,0,0,1.9477,1.9477,0,1.9455,1.9455,1.9455,1.9383,1.9381,1.938,1.9378,1.9357,1.9358,1.9359,0,0,0,0,0,0,0,0,0,0,0,0,0,1.9457,1.9458,1.9477,1.9477,1.9476,1.9455,1.9455,1.9454,1.9383,1.9381,1.9379,1.9377,1.9357,1.9358,1.9359,0,0,0,0,0,0,0,0,0,0,0,0,0,1.9454,1.9458,1.9477,1.9438,1.9434,1.9455,1.9455,1.9454,1.9384,1.9381,1.9379,1.9376,1.9357,1.9358,1.936,1.9417,0,0,1.9364,1.9365,0,0,0,0,0,0,0,0,1.9454,1.9455,1.9444,1.9441,1.9437,1.9419,1.944,1.9442,1.9384,1.9403,1.9378,1.9375,1.938,1.9379,1.9381,1.9416,1.9415,1.9364,1.9365,1.9365,1.9366,0,0,0,0,0,0,0,1.9454,1.9455,1.9468,1.9444,1.9439,1.9422,1.9419,1.944,1.9405,1.9401,1.9396,1.9394,1.9378,1.9379,1.938,1.9414,1.9364,1.9365,1.9366,1.9367,1.9495,1.9497,0,0,0,0,0,0,1.946,1.9456,1.9469,1.9468,1.944,1.9424,1.9421,1.9427,1.9405,1.9399,1.9396,1.9391,1.9378,1.9378,1.9379,1.9444,1.9365,1.9367,1.9368,1.9492,1.9495,1.9498,0,0,0,0,0,0,1.946,1.9462,1.947,1.946,1.946,1.9427,1.9435,1.9428,1.943,1.9401,1.9395,1.9405,1.9376,1.9377,1.9407,1.9442,1.9367,1.9369,1.9489,1.9493,1.9496,1.9575,0,0,0,0,0,0,1.946,1.9462,1.9484,1.9461,1.9461,1.9499,1.9437,1.9429,1.9432,1.9425,1.9407,1.9402,1.9374,1.9406,1.9409,1.9443,1.937,1.9486,1.9491,1.9495,1.9569,1.9581,1.9591,0,0,0,0,0,1.9459,1.9507,1.9485,1.9487,1.9487,1.9501,1.9501,1.9468,1.9435,1.9457,1.9438,1.9403,1.9438,1.9409,1.9412,1.9447,1.9483,1.9489,1.9495,1.9564,1.9578,1.9591,0,0,0,0,0,0,1.9535,1.9503,1.9479,1.9521,1.9514,1.9489,1.9515,1.9484,1.9487,1.948,1.9439,1.9436,1.9473,1.9463,1.9432,1.9501,1.9455,1.9461,1.9506,1.952,1.953,1.9532,1.9371,0,0,0,0,0,1.9556,1.9571,1.9542,1.9582,1.958,1.9548,1.9553,1.9528,1.952,1.9517,1.9501,1.9494,1.9504,1.9511,1.9518,1.9567,1.9562,1.9592,1.9603,1.9612,1.9619,1.9644,1.9657,1.9517,1.9517,1.9516,0,0,1.9601,1.9586,1.9597,1.9597,1.9589,1.9604,1.9546,1.9566,1.9577,1.952,1.9548,1.9536,1.9526,1.9566,1.9583,1.9559,1.9656,1.962,1.9627,1.9628,1.9651,1.9664,1.9676,1.9521,1.952,1.9519,0,0,1.9691,1.9681,1.9712,1.9705,1.9693,1.9671,1.9679,1.9659,1.9648,1.9675,1.9633,1.9646,1.9663,1.9658,1.9658,1.9744,1.9712,1.9748,1.9805,1.983,1.9841,1.9851,1.9882,1.9893,1.9754,1.9754,1.9754,0,1.9748,1.977,1.9732,1.9754,1.9755,1.9703,1.9735,1.973,1.9722,1.9724,1.9697,1.9717,1.9707,1.9745,1.9766,1.9768,1.9775,1.975,1.9842,1.9852,1.986,1.9889,1.9901,1.9759,1.9758,1.9758,1.9757,0,1.9841,1.9857,1.9884,1.9876,1.988,1.9907,1.9874,1.9882,1.9857,1.9838,1.9866,1.9852,1.9855,1.9862,1.9838,1.9897,1.9882,1.985,1.9802,1.9879,1.9905,1.9916,1.9765,1.9763,1.9762,1.9761,0,0,1.9979,1.9949,1.996,1.9955,1.9938,1.995,1.9974,1.9976,1.9985,1.998,2.0,2.0015,1.9985,1.9984,1.9959,1.998,2.005,1.9945,1.9944,1.9965,2.0114,2.014,2.0153,2.0028,2.003,2.0032,2.0115,0,2.0064,2.0104,2.007,2.0116,2.013,2.0081,2.0102,2.0094,2.0077,2.0086,2.0067,2.0079,2.0038,2.0037,2.0056,2.0038,2.008,2.0031,2.0047,2.0048,2.0051,2.0167,2.0194,2.0274,2.0126,2.0127,2.0129,0,2.0169,2.0169,2.0216,2.0195,2.02,2.0219,2.0218,2.0228,2.0218,2.0204,2.0203,2.0171,2.0194,2.0147,2.0178,2.0146,2.015,2.0142,2.0144,2.0145,2.0093,2.0172,2.0298,2.031,2.0145,2.0143,2.0142,0,2.0266,2.0277,2.0306,2.0304,2.028,2.0295,2.0286,2.0273,2.0276,2.0276,2.0278,2.028,2.0282,2.0284,2.0254,2.0223,2.0289,2.024,2.0279,2.0279,2.0295,2.0295,2.0425,2.0297,2.0297,2.0297,2.0297,0,2.0365,2.0396,2.0349,2.0367,2.04,2.0361,2.0395,2.0381,2.037,2.0385,2.0342,2.0357,2.0316,2.0327,2.0303,2.0332,2.0333,2.0323,2.0316,2.0327,2.0329,2.033,2.0324,2.03,2.0299,2.0299,2.0298,0,2.0478,2.0448,2.0477,2.0452,2.0446,2.0472,2.045,2.0466,2.0445,2.0465,2.0467,2.0436,2.0446,2.0416,2.0422,2.0406,2.0448,2.0432,2.0452,2.0447,2.0488,2.0485,2.0624,2.064,2.0502,2.0503,2.0504,0,2.0544,2.0566,2.0543,2.0549,2.0542,2.0553,2.0556,2.0519,2.0523,2.0513,2.053,2.0537,2.054,2.0559,2.0537,2.0541,2.0526,2.0574,2.0526,2.0536,2.0527,2.0526,2.0529,2.0585,2.0586,2.0588,2.0589,0,2.0664,2.0647,2.0653,2.0653,2.0658,2.0656,2.0652,2.066,2.0619,2.0627,2.0637,2.0639,2.0644,2.0652,2.0651,2.0642,2.0609,2.0604,2.0613,2.0625,2.0635,2.0631,2.0479,2.0601,2.06,2.0599,2.0598,2.0598,2.0756,2.0773,2.0759,2.0766,2.0759,2.0756,2.0769,2.075,2.0757,2.0758,2.0735,2.075,2.0738,2.0734,2.0728,2.0739,2.0717,2.073,2.0734,2.0738,2.0745,2.0633,2.0739,2.0738,2.0738,2.0737,2.0737,0,2.0874,2.0862,2.0869,2.0863,2.0869,2.0836,2.083,2.0837,2.085,2.0842,2.0845,2.0857,2.0863,2.0841,2.0845,2.0858,2.0843,2.086,2.0859,2.0858,2.0764,2.0756,2.0872,2.0872,2.0872,2.0872,2.0872,2.0872,2.0936,2.0963,2.0945,2.0969,2.0957,2.097,2.0969,2.0966,2.0959,2.0973,2.0978,2.0963,2.0949,2.0951,2.0956,2.0949,2.0953,2.0976,2.0964,2.0877,2.0864,2.0852,2.0844,2.0976,2.0977,2.1056,2.1057,2.1058]}]]